Theta_e
327 334 347 348 349 349 350 349 349 348 348 348 349 348 348 346 346 348 348 349 348 347 346 343 342 342 342 341 340 338 337 335 335 337 338 340 348 351 350 350 349 349 351
328 335 345 348 349 349 349 349 349 348 348 348 348 348 346 345 343 342 343 343 344 344 342 340 339 337 336 336 335 334 331 330 329 330 332 335 341 349 348 348 348 349 350
328 335 344 347 349 350 350 349 350 350 349 349 348 347 345 343 341 339 340 340 339 339 337 336 334 331 331 331 329 326 327 325 325 327 330 336 340 348 346 345 345 346 349
329 335 342 345 349 350 350 350 350 350 350 347 346 344 343 340 337 336 336 337 336 336 335 331 328 326 326 324 323 324 324 323 326 325 330 334 338 344 346 344 343 344 345
330 335 339 344 348 350 350 349 347 346 347 346 344 341 337 336 335 334 333 332 331 331 329 326 324 323 323 323 322 320 320 321 320 321 325 333 340 343 345 344 341 341 342
328 332 336 342 347 347 346 346 345 343 342 341 338 337 337 335 332 329 329 328 327 326 325 323 323 323 322 321 320 319 318 316 313 317 321 327 337 342 341 341 340 340 340
326 329 334 340 343 343 343 340 339 340 339 338 337 337 335 332 329 327 326 325 325 324 322 323 323 321 320 319 318 316 313 311 309 313 316 323 331 334 335 335 335 335 336
324 325 330 333 337 339 340 340 340 337 337 337 336 334 332 329 326 325 324 324 323 322 323 321 320 319 318 316 315 313 309 306 304 309 313 319 328 330 330 330 330 330 330
322 323 327 331 333 332 334 335 334 336 337 336 334 332 329 326 325 324 323 322 322 322 320 319 318 317 315 313 310 308 306 304 301 306 309 316 324 327 326 326 326 326 326
317 320 323 326 328 329 330 329 331 333 335 333 331 328 325 324 324 324 322 322 321 319 318 316 315 314 312 310 307 304 302 300 299 303 307 312 318 322 323 323 323 323 324
312 315 319 321 323 324 325 326 327 328 329 328 326 323 319 317 317 316 316 321 320 316 314 313 310 308 306 305 303 301 297 296 297 300 305 310 315 319 320 320 321 322 323
310 312 314 317 319 319 319 322 323 322 324 322 319 315 311 310 310 310 315 318 317 314 311 310 306 301 296 295 295 295 294 295 295 297 302 307 312 314 317 318 319 322 323
312 311 311 313 315 315 317 316 316 316 316 314 312 308 307 305 307 308 308 306 305 302 301 299 295 295 295 295 294 294 293 294 294 295 300 305 309 312 314 316 320 321 321
307 309 310 311 312 312 313 313 313 312 310 309 308 305 303 302 303 302 302 300 299 297 295 295 294 294 293 293 293 293 293 293 294 294 300 304 308 311 315 319 319 319 320
304 307 308 309 311 311 309 311 309 309 308 307 304 302 300 300 300 299 297 295 294 293 294 293 293 293 293 292 292 292 292 292 292 294 297 303 308 313 315 318 318 319 320
304 305 307 307 310 310 309 308 309 308 306 303 302 301 298 299 299 297 293 292 292 292 292 292 292 292 292 292 291 291 291 292 292 293 295 302 307 312 315 315 317 318 317
302 304 303 305 308 308 308 307 307 305 302 302 301 298 297 297 296 295 293 291 291 291 291 291 290 290 290 290 290 290 291 291 292 293 294 296 303 308 310 313 314 317 313
301 300 302 304 305 306 307 306 306 304 302 301 299 298 296 296 295 293 292 291 291 290 291 290 290 289 290 290 289 289 290 290 291 292 293 296 298 303 305 306 307 309 308
300 300 299 302 303 304 306 305 304 302 302 300 298 297 296 295 294 293 292 291 290 290 290 289 288 289 289 289 288 289 289 289 289 290 291 294 296 294 296 298 296 297 299
299 299 299 299 301 302 303 303 301 299 300 299 297 296 295 295 294 293 292 291 289 289 288 288 288 287 288 288 286 287 288 289 289 289 291 291 290 291 291 290 291 291 296
297 297 296 295 298 299 300 299 297 296 297 296 297 296 294 295 293 293 291 290 289 289 289 288 288 287 286 287 287 286 287 287 287 288 289 289 288 289 289 289 289 289 290
298 296 296 295 296 297 299 299 300 298 297 297 295 294 294 294 293 292 291 289 288 288 287 287 287 286 286 286 288 287 285 286 287 287 288 287 287 288 288 288 288 288 289
296 296 296 296 295 296 297 298 291 293 291 292 292 292 291 292 292 292 290 290 288 288 287 287 287 287 286 284 285 289 284 287 285 286 286 286 286 287 288 287 287 287 288
297 297 296 296 295 295 296 295 294 295 292 293 295 293 291 291 291 291 290 289 288 288 287 287 287 288 287 285 284 284 284 286 286 283 285 285 285 285 287 287 287 286 287
295 296 295 295 294 295 295 296 294 294 295 292 294 292 291 290 291 290 290 288 288 287 287 287 286 286 287 286 285 284 283 284 284 285 283 283 285 285 286 286 286 287 286
293 294 294 293 293 294 293 294 294 294 294 290 290 290 289 289 289 289 288 288 288 287 286 286 286 286 286 286 286 285 285 284 283 283 283 283 283 284 285 285 285 286 286
Wind_Speed
6 10 14 15 14 13 13 12 10 10 10 9 10 10 11 11 10 11 11 12 11 12 13 13 12 12 13 12 13 12 12 12 13 14 14 14 12 12 13 10 8 10 11
9 10 10 13 15 14 13 11 11 10 10 10 11 11 10 9 9 8 8 9 10 11 11 11 9 10 9 9 10 11 10 12 12 12 13 11 12 15 15 13 13 12 12
12 10 10 10 14 14 13 13 12 13 14 13 11 13 11 10 8 6 6 8 7 8 8 8 9 9 10 10 9 9 10 10 11 11 11 7 8 11 13 14 13 14 14
12 11 9 10 13 14 13 13 13 12 12 12 11 10 11 9 5 5 6 8 9 9 10 9 9 8 9 9 9 10 10 10 11 11 7 7 6 9 12 13 14 14 14
11 10 9 10 13 14 14 12 11 12 12 12 10 7 5 6 6 7 8 8 9 8 9 9 9 10 10 10 11 11 11 11 11 9 8 8 5 8 12 13 13 14 13
9 8 9 10 12 11 10 13 9 6 7 7 5 6 8 7 7 6 8 8 8 8 8 9 10 10 11 11 11 12 12 11 9 8 8 9 8 14 15 15 15 15 14
8 6 6 9 11 10 10 13 12 10 9 9 9 9 9 9 8 8 7 8 9 9 9 10 11 10 11 11 12 12 12 12 7 8 8 8 9 9 12 11 12 12 14
10 7 6 7 8 9 11 11 11 15 14 12 11 11 11 10 9 9 9 9 9 9 10 10 10 10 11 11 12 13 14 11 8 8 8 7 9 11 10 9 10 12 13
8 8 7 7 7 9 8 10 16 15 13 13 13 13 12 12 11 11 11 11 11 11 10 10 10 10 11 12 12 12 12 12 8 6 7 5 9 9 9 10 11 11 10
7 8 9 8 7 7 6 11 11 10 10 12 12 11 10 10 10 10 9 11 12 11 11 10 11 11 11 12 12 12 11 11 7 7 6 6 9 8 9 10 10 9 10
7 9 8 8 8 8 8 8 10 10 11 11 10 11 9 5 7 7 7 10 12 11 11 11 11 11 11 12 12 11 9 5 5 4 4 7 7 8 9 9 8 9 10
13 12 10 10 9 7 5 7 7 6 6 7 7 8 6 7 6 5 6 9 10 10 11 11 11 10 7 4 4 6 4 5 4 4 4 7 7 6 7 8 7 10 11
13 10 13 11 10 10 8 6 4 4 5 6 10 9 8 6 5 4 4 4 4 7 4 5 5 4 5 3 4 4 4 4 3 3 5 6 5 5 6 6 9 10 11
14 15 14 14 12 12 7 7 7 6 6 6 7 10 8 6 6 5 4 5 5 3 5 4 3 4 5 5 5 5 5 4 3 2 3 5 5 6 7 10 10 10 11
13 14 15 14 14 12 12 8 8 9 8 8 8 9 8 8 8 7 6 5 5 5 5 4 4 3 4 4 4 4 4 4 4 3 2 6 6 7 9 10 11 11 12
14 15 13 15 15 13 14 12 10 8 9 9 8 9 11 8 8 8 7 7 6 5 5 5 5 4 4 4 4 4 4 4 4 4 3 4 7 8 11 11 12 11 16
16 13 16 17 16 17 17 13 11 10 9 9 10 12 13 11 11 10 8 7 7 6 7 5 5 4 4 3 4 4 3 4 4 4 4 4 4 5 10 12 12 14 13
12 17 15 14 18 18 17 12 11 10 10 10 10 10 14 14 13 11 8 8 8 7 6 6 5 4 4 4 4 3 4 4 4 4 4 4 4 4 11 13 12 13 13
15 15 16 17 18 19 16 12 13 12 12 11 10 11 15 14 14 12 9 9 10 8 7 7 4 3 4 4 4 4 4 5 4 4 5 6 6 6 5 13 14 12 10
13 14 15 14 18 17 12 11 9 9 10 9 11 11 14 13 14 12 10 11 10 8 8 7 5 3 2 4 5 5 3 3 3 4 6 6 6 6 6 7 5 6 12
8 12 14 14 16 12 12 12 10 14 12 11 11 15 15 13 15 14 9 11 11 11 11 11 5 6 3 4 6 3 4 3 4 3 4 5 5 4 5 5 4 3 4
8 12 13 17 16 16 12 11 7 11 11 10 10 11 14 15 15 14 13 12 13 10 11 11 8 5 3 7 4 3 4 3 2 2 4 3 4 3 4 4 5 5 4
9 10 13 15 16 17 16 9 2 3 2 8 11 11 15 17 17 17 15 13 13 11 11 13 11 10 7 5 6 2 4 4 4 3 5 4 3 1 2 2 4 4 4
10 7 8 8 12 14 16 14 18 14 12 11 13 12 14 18 19 18 17 16 15 11 12 12 11 8 6 7 3 2 2 3 4 4 3 4 4 3 2 1 2 3 4
5 6 6 7 11 12 14 15 13 17 12 5 7 13 14 14 18 18 18 17 16 12 12 13 12 11 6 6 5 5 3 2 2 2 4 5 3 3 3 0 1 2 3
7 7 6 5 8 9 14 17 17 18 13 7 9 11 11 11 12 16 17 16 15 14 15 13 12 13 11 6 6 6 6 6 5 4 2 3 2 2 1 2 2 2 2
Wind_Direction
216 179 173 172 171 162 157 155 149 145 142 134 132 128 111 103 99 80 82 91 89 81 77 70 60 57 57 58 61 50 43 38 39 32 26 20 34 77 62 54 60 55 50
154 176 170 174 173 170 164 161 157 156 153 151 142 120 106 104 107 96 93 84 83 70 60 65 63 61 62 62 58 52 49 45 44 42 29 25 24 70 61 48 44 50 48
161 171 172 184 174 173 170 171 171 168 163 154 140 126 113 95 82 106 99 94 101 85 93 80 74 74 74 68 63 56 55 55 51 48 43 39 38 61 64 56 48 46 42
164 167 173 174 175 175 175 177 183 172 156 139 124 124 115 117 125 135 118 110 106 109 101 91 79 77 72 66 61 56 61 67 67 60 56 41 36 39 70 62 56 49 42
172 169 170 166 166 174 183 167 147 144 138 132 136 128 143 173 152 135 123 116 109 105 93 89 86 80 73 69 63 63 61 65 64 64 59 40 40 66 72 71 61 52 38
175 170 173 163 167 163 178 164 160 143 173 181 173 166 172 164 152 137 129 121 112 107 103 99 93 84 78 73 66 66 63 61 60 59 54 35 55 61 57 54 54 50 42
170 173 179 172 165 169 169 180 195 199 188 195 164 173 172 169 159 148 134 124 119 112 107 100 91 86 81 75 68 67 65 61 61 56 50 35 53 59 57 47 46 49 50
170 175 190 191 178 174 173 183 198 199 199 186 177 183 176 171 167 156 145 135 129 122 115 106 99 91 83 74 70 64 61 56 55 54 44 33 35 62 66 56 48 45 50
177 178 186 188 192 181 178 197 206 199 202 184 188 180 174 172 168 163 153 148 142 131 127 120 112 99 90 86 81 75 69 65 65 53 41 31 27 52 54 55 54 51 48
194 198 193 188 185 184 184 202 205 199 181 180 180 171 162 162 160 156 153 154 146 136 131 122 113 105 96 88 80 73 71 65 61 55 45 34 30 45 52 55 56 58 55
217 210 202 197 190 178 177 182 181 197 169 170 168 153 135 144 140 135 154 156 147 140 131 120 105 96 86 76 72 68 66 63 63 53 42 32 44 53 53 54 60 63 65
211 210 205 198 192 183 180 181 175 171 169 159 153 147 144 148 152 153 154 146 141 138 131 119 109 101 88 82 76 67 66 67 62 52 41 29 40 58 69 63 64 71 66
208 203 201 197 193 186 186 178 182 178 170 164 162 158 156 157 162 153 130 108 103 90 90 99 102 88 90 86 78 72 70 63 57 50 33 27 47 68 80 87 83 78 72
199 206 198 195 191 191 184 187 182 179 178 176 174 164 161 165 171 163 155 144 145 143 134 132 117 110 101 92 87 86 77 69 69 74 52 51 68 93 106 95 91 82 84
219 212 204 193 198 192 190 185 188 191 184 176 174 175 170 173 176 167 166 162 163 154 153 145 135 127 109 98 91 93 85 82 85 93 83 54 68 90 101 99 95 92 93
218 215 201 203 201 191 198 193 195 191 183 181 181 182 179 175 177 178 170 172 172 171 161 158 157 146 128 129 115 116 97 99 102 107 106 84 75 83 93 94 93 102 86
223 211 200 200 200 198 198 197 195 191 185 192 190 182 181 180 180 177 175 179 177 168 159 153 149 133 133 134 114 103 93 100 113 109 111 113 96 46 95 102 97 81 82
215 208 200 198 197 201 205 199 197 192 191 194 189 189 189 184 178 175 176 183 172 166 166 166 157 149 157 161 141 112 115 110 109 97 99 95 90 65 74 75 76 77 64
211 208 204 200 201 201 202 201 203 197 199 197 191 190 186 188 183 179 178 174 168 169 176 168 163 167 174 146 121 109 116 102 87 86 97 92 82 73 76 76 64 48 40
210 208 205 198 206 198 195 198 198 199 209 201 193 202 192 186 184 181 179 171 168 169 172 174 161 158 150 131 110 97 106 109 94 90 108 105 93 88 82 67 50 47 49
207 201 201 198 203 188 194 194 201 211 200 202 207 194 190 194 184 185 182 173 173 178 177 173 150 159 145 155 127 113 81 114 105 113 133 125 113 91 81 66 72 54 46
229 211 200 207 196 197 199 206 206 204 213 206 198 199 191 187 189 187 182 183 183 174 175 175 164 145 136 185 164 138 155 158 186 144 168 139 121 70 100 78 64 79 81
260 231 218 211 200 199 199 189 130 120 127 179 197 192 196 186 185 188 183 182 183 184 184 182 179 169 157 184 224 158 147 195 144 173 196 181 174 102 108 51 66 79 92
262 259 239 224 209 204 190 193 202 208 205 216 206 198 192 188 186 187 185 181 183 187 188 186 182 183 152 162 162 165 60 118 163 165 202 213 223 231 184 97 63 91 107
294 301 257 216 202 197 200 205 205 215 219 185 197 188 195 193 192 186 187 183 182 183 189 186 181 189 187 161 155 155 157 100 92 133 157 176 205 202 201 81 28 117 121
317 323 317 265 228 196 189 206 209 213 209 184 189 188 191 191 193 193 187 188 186 184 183 184 188 193 191 183 174 172 167 163 173 157 147 162 177 166 215 283 182 143 135